Regional Weather Roundup
Issued by NWS Little Rock, AR

Home | Current Version | Previous Version | Text Only | Print | Product List | Glossary Off
Versions: 1 2 3 4 5 6 7 8 9 10 11 12 13 14 15 16 17 18 19 20 21 22 23 24 25 26 27 28 29 30 31 32 33 34 35 36 37 38 39 40 41 42 43 44 45 46 47 48 49 50

000
ASUS44 KLZK 300105
RWRLZK

WEATHER ROUNDUP FOR ARKANSAS
NATIONAL WEATHER SERVICE LITTLE ROCK AR
800 PM CDT SUN MAR 29 2015

NOTE: "FAIR" INDICATES FEW OR NO CLOUDS BELOW 12,000 FEET WITH NO
SIGNIFICANT WEATHER AND/OR OBSTRUCTIONS TO VISIBILITY.

ARZ001-003-010-029-300200-
NORTHWEST ARKANSAS

CITY           SKY/WX    TMP DP  RH WIND       PRES   REMARKS
FAYETTEVILLE   CLOUDY    56  48  74 E3        30.08S
FORT SMITH     CLEAR     66  45  46 N7        30.06R
HARRISON       CLOUDY    60  45  57 NW6       30.09R
BENTONVILLE    CLOUDY    57  43  58 CALM      30.09S
ROGERS         CLOUDY    56  44  64 CALM      30.10S
SILOAM SPGS    MOCLDY    55  43  62 N3        30.10R
HIGHFILL       MOCLDY    57  45  64 CALM      30.09R
SPRINGDALE     MOCLDY    59  45  58 W5        30.11R
$$

ARZ004-005-016-300200-
NORTH CENTRAL ARKANSAS

CITY           SKY/WX    TMP DP  RH WIND       PRES   REMARKS
BATESVILLE     MOCLDY    61  48  63 SE3       30.03R
FLIPPIN        MOCLDY    63  43  48 NW7       30.06R
MTN HOME       CLOUDY    62  44  51 CALM      30.04R
$$

ARZ040-041-300200-
WEST CENTRAL ARKANSAS

CITY           SKY/WX    TMP DP  RH WIND       PRES   REMARKS
MENA           MOCLDY    70  54  56 CALM      30.04R
MOUNT IDA      MOCLDY    69  53  56 CALM      30.00R
$$

ARZ009-017-025-026-028-300200-
NORTHEAST ARKANSAS

CITY           SKY/WX    TMP DP  RH WIND       PRES   REMARKS
CORNING          N/A     55  50  82 S7        30.05S
JONESBORO      CLEAR     56  50  80 W3        30.05R
NEWPORT        PTCLDY    59  54  83 SE7       30.05R
BLYTHEVILLE    CLEAR     59  50  72 W9        30.05S
$$

ARZ022-023-033-042-044-300200-
CENTRAL ARKANSAS

CITY           SKY/WX    TMP DP  RH WIND       PRES   REMARKS
LITTLE ROCK    MOCLDY    73  49  42 NW5       30.01R
N LITTLE ROCK  MOCLDY    68  55  62 NW5       30.01R
JACKSONVILLE   MOCLDY    68  52  56 N2        30.01R
SEARCY         PTCLDY    62  54  74 NE3       30.04R
HOT SPRINGS    MOCLDY    71  53  52 N3        30.01R
RUSSELLVILLE   MOCLDY    63  52  67 CALM      30.03R
CLINTON        MOCLDY    59  52  77 NW3       30.05R
$$

ARZ036-300200-
EAST ARKANSAS

CITY           SKY/WX    TMP DP  RH WIND       PRES   REMARKS
WEST MEMPHIS   PTCLDY    63  54  72 S5        30.03R
$$

ARZ050-053-066-070-073-300200-
SOUTHWEST ARKANSAS

CITY           SKY/WX    TMP DP  RH WIND       PRES   REMARKS
ARKADELPHIA    FAIR      71  58  63 CALM      30.00R
CAMDEN         CLEAR     73  52  46 MISG      30.00R
TEXARKANA      PTCLDY    75  52  44 S6        30.01R
EL DORADO      CLEAR     73  54  51 S6        30.02R
DE QUEEN       PTCLDY    72  53  51 CALM      29.99R
$$

ARZ056-057-069-300200-
SOUTHEAST ARKANSAS

CITY           SKY/WX    TMP DP  RH WIND       PRES   REMARKS
PINE BLUFF     CLEAR     67  57  70 S6        30.00R
STUTTGART      CLEAR     68  54  60 S7        30.01R
MONTICELLO     CLEAR     71  58  63 CALM      30.01R

$$




USA.gov is the U.S. government's official web portal to all federal, state and local government web resources and services.